{"data":{"norad_id":69194,"epoch":"2026-09-20T00:47:45.429216Z","epoch_age_seconds":67345,"freshness":"FRESH","line1":"1 69194U 26114N   26263.03316469  .00015675  00000+0  47369-3 0  9999","line2":"2 69194  53.1561 115.9633 0001069  82.9313 277.1811 15.34426704 19375","mean_motion":15.34426704,"eccentricity":0.0001069,"inclination_deg":53.1561,"raan_deg":115.9633,"arg_perigee_deg":82.9313,"mean_anomaly_deg":277.1811,"bstar":0.00047369,"rev_number":1937,"period_min":93.846124826044,"perigee_km":461.89259410541,"apogee_km":463.35514877973,"semimajor_km":6840.7608714426,"source":"CELESTRAK","updated_at":"2026-09-20T09:00:44.098058Z"}}